Time,TemperatureF,DewpointF,PressureIn,WindDirection,WindDirectionDegrees,WindSpeedMPH,WindSpeedGustMPH,Humidity,HourlyPrecipIn,Conditions,Clouds,dailyrainin,SolarRadiationWatts/m^2,SoftwareType,DateUTC
2013-02-25 00:00:00,27.4,26.4,29.88,NW,321,0.0,0.0,96,0.00,,,0.00,0,Wunderground v.1.15,2013-02-25 05:00:00,
2013-02-25 00:10:00,27.3,26.3,29.88,NE,40,0.0,0.0,96,0.00,,,0.00,0,Wunderground v.1.15,2013-02-25 05:10:00,
2013-02-25 00:20:00,27.3,26.3,29.89,NNE,28,0.0,0.0,96,0.00,,,0.00,0,Wunderground v.1.15,2013-02-25 05:20:00,
2013-02-25 00:30:00,27.3,26.3,29.89,NE,49,0.0,0.0,96,0.00,,,0.00,0,Wunderground v.1.15,2013-02-25 05:30:00,
2013-02-25 00:40:00,27.2,26.2,29.89,NE,38,0.0,0.0,96,0.00,,,0.00,0,Wunderground v.1.15,2013-02-25 05:40:00,
2013-02-25 00:50:00,27.2,26.2,29.89,NE,55,0.0,0.0,96,0.00,,,0.00,0,Wunderground v.1.15,2013-02-25 05:50:00,
2013-02-25 01:00:00,27.1,26.1,29.90,NE,50,0.0,0.0,96,0.00,,,0.00,0,Wunderground v.1.15,2013-02-25 06:00:00,
2013-02-25 01:10:00,27.1,26.1,29.90,ENE,61,0.0,0.0,96,0.00,,,0.00,0,Wunderground v.1.15,2013-02-25 06:10:00,
2013-02-25 01:20:00,27.0,26.0,29.90,NE,35,0.0,0.0,96,0.00,,,0.00,0,Wunderground v.1.15,2013-02-25 06:20:00,
2013-02-25 01:30:00,26.9,25.7,29.90,ENE,74,0.0,0.0,95,0.00,,,0.00,0,Wunderground v.1.15,2013-02-25 06:30:00,
2013-02-25 01:40:00,26.9,25.7,29.89,NNE,20,0.0,0.0,95,0.00,,,0.00,0,Wunderground v.1.15,2013-02-25 06:40:00,
2013-02-25 01:50:00,26.7,25.5,29.90,NNE,15,0.0,0.0,95,0.00,,,0.00,0,Wunderground v.1.15,2013-02-25 06:50:00,
2013-02-25 02:00:00,26.6,25.4,29.89,NNE,23,0.0,0.0,95,0.00,,,0.00,0,Wunderground v.1.15,2013-02-25 07:00:00,
2013-02-25 02:10:00,26.5,25.3,29.89,NE,42,0.0,0.0,95,0.00,,,0.00,0,Wunderground v.1.15,2013-02-25 07:10:00,
2013-02-25 02:20:00,26.4,25.2,29.89,NE,39,0.0,0.0,95,0.00,,,0.00,0,Wunderground v.1.15,2013-02-25 07:20:00,
2013-02-25 02:30:00,26.2,25.0,29.89,North,5,0.0,0.0,95,0.00,,,0.00,0,Wunderground v.1.15,2013-02-25 07:30:00,
2013-02-25 02:40:00,26.0,24.5,29.90,North,5,0.0,0.0,94,0.00,,,0.00,0,Wunderground v.1.15,2013-02-25 07:40:00,
2013-02-25 02:50:00,26.0,24.5,29.90,NNE,14,0.0,0.0,94,0.00,,,0.00,0,Wunderground v.1.15,2013-02-25 07:50:00,
2013-02-25 03:00:00,25.9,24.4,29.90,NNE,22,0.0,0.0,94,0.00,,,0.00,0,Wunderground v.1.15,2013-02-25 08:00:00,
2013-02-25 03:10:00,25.9,24.4,29.90,NNE,26,0.0,0.0,94,0.00,,,0.00,0,Wunderground v.1.15,2013-02-25 08:10:00,
2013-02-25 03:20:00,25.8,24.3,29.91,NNE,22,0.0,0.0,94,0.00,,,0.00,0,Wunderground v.1.15,2013-02-25 08:20:00,
2013-02-25 03:30:00,25.8,24.3,29.92,NNE,26,0.0,0.0,94,0.00,,,0.00,0,Wunderground v.1.15,2013-02-25 08:30:00,
2013-02-25 03:40:00,25.9,24.4,29.92,NE,56,0.0,0.0,94,0.00,,,0.00,0,Wunderground v.1.15,2013-02-25 08:40:00,
2013-02-25 03:50:00,26.0,24.5,29.93,NNW,336,0.0,0.0,94,0.00,,,0.00,0,Wunderground v.1.15,2013-02-25 08:50:00,
2013-02-25 04:00:00,26.2,25.0,29.93,NNE,14,0.0,0.0,95,0.00,,,0.00,0,Wunderground v.1.15,2013-02-25 09:00:00,
2013-02-25 04:10:00,26.4,25.2,29.94,NNE,28,0.0,0.0,95,0.00,,,0.00,0,Wunderground v.1.15,2013-02-25 09:10:00,
2013-02-25 04:20:00,26.5,25.3,29.94,North,360,0.0,0.0,95,0.00,,,0.00,0,Wunderground v.1.15,2013-02-25 09:20:00,
2013-02-25 04:30:00,26.5,25.3,29.95,ENE,57,0.0,0.0,95,0.00,,,0.00,0,Wunderground v.1.15,2013-02-25 09:30:00,
2013-02-25 04:40:00,26.5,25.3,29.95,NNE,22,0.0,0.0,95,0.00,,,0.00,0,Wunderground v.1.15,2013-02-25 09:40:00,
2013-02-25 04:50:00,26.4,25.2,29.95,NNE,24,0.0,0.0,95,0.00,,,0.00,0,Wunderground v.1.15,2013-02-25 09:50:00,
2013-02-25 05:00:00,26.4,25.2,29.95,NNE,30,0.0,0.0,95,0.00,,,0.00,0,Wunderground v.1.15,2013-02-25 10:00:00,
2013-02-25 05:10:00,26.5,25.3,29.96,NNE,17,0.0,0.0,95,0.00,,,0.00,0,Wunderground v.1.15,2013-02-25 10:10:00,
2013-02-25 05:20:00,26.5,25.0,29.96,ENE,77,0.0,0.0,94,0.00,,,0.00,0,Wunderground v.1.15,2013-02-25 10:20:00,
2013-02-25 05:30:00,26.4,24.9,29.97,NNE,16,0.0,0.0,94,0.00,,,0.00,0,Wunderground v.1.15,2013-02-25 10:30:00,
2013-02-25 05:40:00,26.2,24.7,29.97,NNE,13,0.0,0.0,94,0.00,,,0.00,0,Wunderground v.1.15,2013-02-25 10:40:00,
2013-02-25 05:50:00,26.0,24.5,29.98,NE,36,0.0,0.0,94,0.00,,,0.00,0,Wunderground v.1.15,2013-02-25 10:50:00,
2013-02-25 06:00:00,25.8,24.3,29.99,NE,46,0.0,0.0,94,0.00,,,0.00,0,Wunderground v.1.15,2013-02-25 11:00:00,
2013-02-25 06:10:00,25.7,24.0,29.99,NE,44,0.0,0.0,93,0.00,,,0.00,0,Wunderground v.1.15,2013-02-25 11:10:00,
2013-02-25 06:20:00,25.5,24.0,30.00,North,5,0.0,0.0,94,0.00,,,0.00,0,Wunderground v.1.15,2013-02-25 11:20:00,
2013-02-25 06:30:00,25.6,24.1,30.00,NNE,30,0.0,0.0,94,0.00,,,0.00,0,Wunderground v.1.15,2013-02-25 11:30:00,
2013-02-25 06:40:00,25.7,24.2,30.01,NNE,24,0.0,0.0,94,0.00,,,0.00,5,Wunderground v.1.15,2013-02-25 11:40:00,
2013-02-25 06:50:00,25.8,24.3,30.01,NNW,338,0.0,0.0,94,0.00,,,0.00,5,Wunderground v.1.15,2013-02-25 11:50:00,
2013-02-25 07:00:00,25.8,24.3,30.02,NNE,16,0.0,0.0,94,0.00,,,0.00,7,Wunderground v.1.15,2013-02-25 12:00:00,
2013-02-25 07:10:00,25.8,24.3,30.02,NNE,28,0.0,0.0,94,0.00,,,0.00,7,Wunderground v.1.15,2013-02-25 12:10:00,
2013-02-25 07:20:00,25.7,24.2,30.02,NE,45,0.0,0.0,94,0.00,,,0.00,9,Wunderground v.1.15,2013-02-25 12:20:00,
2013-02-25 07:30:00,25.8,24.3,30.02,NE,35,0.0,0.0,94,0.00,,,0.00,9,Wunderground v.1.15,2013-02-25 12:30:00,
2013-02-25 08:00:00,26.1,24.6,30.02,NE,37,0.0,0.0,94,0.00,,,0.00,16,Wunderground v.1.15,2013-02-25 13:00:00,
2013-02-25 08:10:00,26.4,24.7,30.02,NNE,27,0.0,0.0,93,0.00,,,0.00,19,Wunderground v.1.15,2013-02-25 13:10:00,
2013-02-25 08:20:00,26.7,24.9,30.03,North,5,0.0,0.0,93,0.00,,,0.00,21,Wunderground v.1.15,2013-02-25 13:20:00,
2013-02-25 08:30:00,27.0,25.5,30.03,North,11,0.0,0.0,94,0.00,,,0.00,21,Wunderground v.1.15,2013-02-25 13:30:00,
2013-02-25 08:40:00,27.4,25.9,30.03,NNE,14,0.0,0.0,94,0.00,,,0.00,21,Wunderground v.1.15,2013-02-25 13:40:00,
2013-02-25 08:50:00,27.8,26.0,30.04,North,5,0.0,0.0,93,0.00,,,0.00,23,Wunderground v.1.15,2013-02-25 13:50:00,
2013-02-25 09:00:00,28.1,26.3,30.04,NNE,22,0.0,0.0,93,0.00,,,0.00,23,Wunderground v.1.15,2013-02-25 14:00:00,
2013-02-25 09:10:00,28.4,26.6,30.04,NNE,27,0.0,0.0,93,0.00,,,0.00,25,Wunderground v.1.15,2013-02-25 14:10:00,
2013-02-25 09:20:00,28.8,27.0,30.05,NNE,28,0.0,0.0,93,0.00,,,0.00,25,Wunderground v.1.15,2013-02-25 14:20:00,
2013-02-25 09:30:00,29.1,27.1,30.05,NE,53,0.0,0.0,92,0.00,,,0.00,26,Wunderground v.1.15,2013-02-25 14:30:00,
2013-02-25 09:40:00,29.2,26.9,30.05,NE,34,0.0,0.0,91,0.00,,,0.00,28,Wunderground v.1.15,2013-02-25 14:40:00,
2013-02-25 09:50:00,29.4,26.8,30.06,North,355,0.0,0.0,90,0.00,,,0.00,28,Wunderground v.1.15,2013-02-25 14:50:00,
2013-02-25 10:10:00,30.0,27.4,30.06,NE,51,0.0,0.0,90,0.00,,,0.00,30,Wunderground v.1.15,2013-02-25 15:10:00,
2013-02-25 10:11:00,29.7,27.1,30.06,NE,40,0.0,0.0,90,0.00,,,0.00,30,Wunderground v.1.15,2013-02-25 15:11:00,
2013-02-25 10:30:00,30.6,28.0,30.06,NE,48,0.0,0.0,90,0.00,,,0.00,35,Wunderground v.1.15,2013-02-25 15:30:00,
2013-02-25 10:31:00,30.3,27.7,30.06,East,79,0.0,0.0,90,0.00,,,0.00,33,Wunderground v.1.15,2013-02-25 15:31:00,
2013-02-25 10:40:00,30.8,27.7,30.06,NE,49,0.0,0.0,88,0.00,,,0.00,19,Wunderground v.1.15,2013-02-25 15:40:00,
2013-02-25 10:50:00,31.0,27.9,30.06,NE,53,0.0,0.0,88,0.00,,,0.00,40,Wunderground v.1.15,2013-02-25 15:50:00,
2013-02-25 11:00:00,31.6,28.7,30.06,NE,51,0.0,0.0,89,0.00,,,0.00,42,Wunderground v.1.15,2013-02-25 16:00:00,
2013-02-25 11:10:00,32.0,29.1,30.06,ENE,57,0.0,0.0,89,0.00,,,0.00,91,Wunderground v.1.15,2013-02-25 16:10:00,
2013-02-25 11:20:00,32.1,28.7,30.07,NE,49,0.0,0.0,87,0.00,,,0.00,58,Wunderground v.1.15,2013-02-25 16:20:00,
2013-02-25 11:30:00,32.3,29.1,30.07,NNE,28,0.0,0.0,88,0.00,,,0.00,134,Wunderground v.1.15,2013-02-25 16:30:00,
2013-02-25 11:51:00,32.4,28.4,30.07,ENE,71,0.0,0.0,85,0.00,,,0.00,70,Wunderground v.1.15,2013-02-25 16:51:00,
2013-02-25 12:00:00,33.0,28.7,30.07,NNE,29,1.0,1.0,84,0.00,,,0.00,515,Wunderground v.1.15,2013-02-25 17:00:00,
2013-02-25 12:01:00,32.6,28.6,30.07,NNE,30,0.0,0.0,85,0.00,,,0.00,74,Wunderground v.1.15,2013-02-25 17:01:00,
2013-02-25 12:21:00,33.4,29.1,30.08,ENE,76,2.0,2.0,84,0.00,,,0.00,738,Wunderground v.1.15,2013-02-25 17:21:00,
2013-02-25 12:30:00,33.9,28.7,30.08,NE,38,3.0,3.0,81,0.00,,,0.00,654,Wunderground v.1.15,2013-02-25 17:30:00,
2013-02-25 12:31:00,33.7,28.8,30.08,North,5,3.0,7.0,82,0.00,,,0.00,895,Wunderground v.1.15,2013-02-25 17:31:00,
2013-02-25 12:40:00,34.2,28.4,30.08,NNW,348,3.0,3.0,79,0.00,,,0.00,543,Wunderground v.1.15,2013-02-25 17:40:00,
2013-02-25 12:50:00,34.3,28.5,30.08,NE,50,3.0,3.0,79,0.00,,,0.00,617,Wunderground v.1.15,2013-02-25 17:50:00,
2013-02-25 13:00:00,34.9,28.4,30.08,NE,34,2.0,3.0,77,0.00,,,0.00,645,Wunderground v.1.15,2013-02-25 18:00:00,
2013-02-25 13:10:00,35.2,28.1,30.08,NNE,19,3.0,3.0,75,0.00,,,0.00,571,Wunderground v.1.15,2013-02-25 18:10:00,
2013-02-25 13:20:00,35.7,28.2,30.08,NE,40,2.0,5.0,74,0.00,,,0.00,425,Wunderground v.1.15,2013-02-25 18:20:00,
2013-02-25 13:30:00,35.7,28.2,30.08,NNE,23,3.0,3.0,74,0.00,,,0.00,455,Wunderground v.1.15,2013-02-25 18:30:00,
2013-02-25 13:40:00,35.9,28.1,30.08,NE,39,2.0,11.0,73,0.00,,,0.00,246,Wunderground v.1.15,2013-02-25 18:40:00,
2013-02-25 13:50:00,35.7,28.6,30.09,NE,37,2.0,11.0,75,0.00,,,0.00,262,Wunderground v.1.15,2013-02-25 18:50:00,
2013-02-25 14:00:00,35.8,28.0,30.09,North,5,2.0,2.0,73,0.00,,,0.00,446,Wunderground v.1.15,2013-02-25 19:00:00,
2013-02-25 14:20:00,36.6,27.7,30.09,NE,38,1.0,2.0,70,0.00,,,0.00,425,Wunderground v.1.15,2013-02-25 19:20:00,
2013-02-25 14:21:00,36.2,27.4,30.09,NE,45,2.0,2.0,70,0.00,,,0.00,436,Wunderground v.1.15,2013-02-25 19:21:00,
2013-02-25 14:41:00,37.2,29.0,30.09,NE,38,0.0,2.0,72,0.00,,,0.00,253,Wunderground v.1.15,2013-02-25 19:41:00,
2013-02-25 14:50:00,37.0,28.5,30.10,NNE,31,2.0,2.0,71,0.00,,,0.00,267,Wunderground v.1.15,2013-02-25 19:50:00,
2013-02-25 15:01:00,37.5,29.6,30.11,NNE,31,1.0,8.0,73,0.00,,,0.00,202,Wunderground v.1.15,2013-02-25 20:01:00,
2013-02-25 15:11:00,36.8,28.6,30.11,NNE,32,1.0,1.0,72,0.00,,,0.00,151,Wunderground v.1.15,2013-02-25 20:11:00,
2013-02-25 15:21:00,36.3,28.5,30.12,NNE,32,0.0,0.0,73,0.00,,,0.00,156,Wunderground v.1.15,2013-02-25 20:21:00,
2013-02-25 15:30:00,36.2,28.7,30.12,NNE,32,0.0,0.0,74,0.00,,,0.00,116,Wunderground v.1.15,2013-02-25 20:30:00,
2013-02-25 15:41:00,36.1,29.6,30.13,NE,49,0.0,0.0,77,0.00,,,0.00,88,Wunderground v.1.15,2013-02-25 20:41:00,
2013-02-25 15:51:00,36.0,30.1,30.13,NE,49,0.0,6.0,79,0.00,,,0.00,109,Wunderground v.1.15,2013-02-25 20:51:00,
2013-02-25 16:01:00,36.1,30.5,30.13,NE,49,0.0,6.0,80,0.00,,,0.00,104,Wunderground v.1.15,2013-02-25 21:01:00,
2013-02-25 16:10:00,36.3,31.0,30.14,NE,49,0.0,0.0,81,0.00,,,0.00,54,Wunderground v.1.15,2013-02-25 21:10:00,
2013-02-25 16:11:00,36.2,30.6,30.13,NE,49,0.0,0.0,80,0.00,,,0.00,100,Wunderground v.1.15,2013-02-25 21:11:00,
2013-02-25 16:31:00,36.1,31.1,30.14,NE,49,0.0,0.0,82,0.00,,,0.00,65,Wunderground v.1.15,2013-02-25 21:31:00,
2013-02-25 16:40:00,37.0,32.6,30.15,NE,49,0.0,3.0,84,0.00,,,0.00,42,Wunderground v.1.15,2013-02-25 21:40:00,
2013-02-25 16:41:00,36.5,31.8,30.15,NE,49,0.0,0.0,83,0.00,,,0.00,70,Wunderground v.1.15,2013-02-25 21:41:00,
2013-02-25 17:01:00,37.1,32.1,30.15,NE,49,0.0,3.0,82,0.00,,,0.00,28,Wunderground v.1.15,2013-02-25 22:01:00,
2013-02-25 17:10:00,35.4,30.5,30.15,NE,49,0.0,0.0,82,0.00,,,0.00,5,Wunderground v.1.15,2013-02-25 22:10:00,
2013-02-25 17:11:00,36.5,30.9,30.15,NE,49,0.0,0.0,80,0.00,,,0.00,12,Wunderground v.1.15,2013-02-25 22:11:00,
2013-02-25 17:31:00,34.6,30.3,30.16,NE,49,0.0,0.0,84,0.00,,,0.00,0,Wunderground v.1.15,2013-02-25 22:31:00,
2013-02-25 17:41:00,33.7,30.0,30.15,NE,49,0.0,0.0,86,0.00,,,0.00,0,Wunderground v.1.15,2013-02-25 22:41:00,
2013-02-25 17:50:00,32.4,29.2,30.16,NE,49,0.0,0.0,88,0.00,,,0.00,0,Wunderground v.1.15,2013-02-25 22:50:00,
2013-02-25 17:51:00,33.0,29.6,30.16,NE,49,0.0,0.0,87,0.00,,,0.00,0,Wunderground v.1.15,2013-02-25 22:51:00,
2013-02-25 18:11:00,31.9,29.0,30.16,NE,49,0.0,0.0,89,0.00,,,0.00,0,Wunderground v.1.15,2013-02-25 23:11:00,
2013-02-25 18:21:00,31.4,28.8,30.16,NE,49,0.0,0.0,90,0.00,,,0.00,0,Wunderground v.1.15,2013-02-25 23:21:00,
2013-02-25 18:31:00,30.8,28.5,30.16,NE,49,0.0,0.0,91,0.00,,,0.00,0,Wunderground v.1.15,2013-02-25 23:31:00,
2013-02-25 18:40:00,30.4,28.4,30.16,NE,49,0.0,0.0,92,0.00,,,0.00,0,Wunderground v.1.15,2013-02-25 23:40:00,
2013-02-25 18:51:00,30.1,28.3,30.16,NE,49,0.0,0.0,93,0.00,,,0.00,0,Wunderground v.1.15,2013-02-25 23:51:00,
2013-02-25 19:01:00,29.7,27.9,30.17,NE,49,0.0,0.0,93,0.00,,,0.00,0,Wunderground v.1.15,2013-02-26 00:01:00,
2013-02-25 19:11:00,29.5,28.0,30.17,NE,49,0.0,0.0,94,0.00,,,0.00,0,Wunderground v.1.15,2013-02-26 00:11:00,
2013-02-25 19:21:00,29.3,27.8,30.17,NE,49,0.0,0.0,94,0.00,,,0.00,0,Wunderground v.1.15,2013-02-26 00:21:00,
2013-02-25 19:31:00,29.1,27.6,30.17,NE,49,0.0,0.0,94,0.00,,,0.00,0,Wunderground v.1.15,2013-02-26 00:31:00,
2013-02-25 19:41:00,28.9,27.4,30.17,NE,49,0.0,0.0,94,0.00,,,0.00,0,Wunderground v.1.15,2013-02-26 00:41:00,
2013-02-25 19:51:00,28.9,27.4,30.17,NE,49,0.0,0.0,94,0.00,,,0.00,0,Wunderground v.1.15,2013-02-26 00:51:00,
2013-02-25 20:01:00,28.8,27.3,30.17,NE,49,0.0,0.0,94,0.00,,,0.00,0,Wunderground v.1.15,2013-02-26 01:01:00,
2013-02-25 20:11:00,28.6,27.1,30.18,NE,49,0.0,0.0,94,0.00,,,0.00,0,Wunderground v.1.15,2013-02-26 01:11:00,
2013-02-25 20:21:00,28.4,26.9,30.18,NE,49,0.0,0.0,94,0.00,,,0.00,0,Wunderground v.1.15,2013-02-26 01:21:00,
2013-02-25 20:31:00,28.3,27.1,30.19,NE,49,0.0,0.0,95,0.00,,,0.00,0,Wunderground v.1.15,2013-02-26 01:31:00,
2013-02-25 20:41:00,28.2,27.0,30.19,NE,49,0.0,0.0,95,0.00,,,0.00,0,Wunderground v.1.15,2013-02-26 01:41:00,
2013-02-25 20:50:00,28.3,27.1,30.20,NE,49,0.0,0.0,95,0.00,,,0.00,0,Wunderground v.1.15,2013-02-26 01:50:00,
2013-02-25 21:01:00,28.3,27.1,30.20,NE,49,0.0,0.0,95,0.00,,,0.00,0,Wunderground v.1.15,2013-02-26 02:01:00,
2013-02-25 21:11:00,28.2,27.0,30.20,NE,49,0.0,0.0,95,0.00,,,0.00,0,Wunderground v.1.15,2013-02-26 02:11:00,
2013-02-25 21:21:00,28.1,26.9,30.20,NE,49,0.0,0.0,95,0.00,,,0.00,0,Wunderground v.1.15,2013-02-26 02:21:00,
2013-02-25 21:31:00,28.0,26.8,30.20,NE,49,0.0,0.0,95,0.00,,,0.00,0,Wunderground v.1.15,2013-02-26 02:31:00,
2013-02-25 21:41:00,28.0,26.8,30.20,NE,49,0.0,0.0,95,0.00,,,0.00,0,Wunderground v.1.15,2013-02-26 02:41:00,
2013-02-25 21:50:00,27.8,26.6,30.20,NE,49,0.0,0.0,95,0.00,,,0.00,0,Wunderground v.1.15,2013-02-26 02:50:00,
2013-02-25 21:51:00,27.9,26.7,30.20,NE,49,0.0,0.0,95,0.00,,,0.00,0,Wunderground v.1.15,2013-02-26 02:51:00,
2013-02-25 22:11:00,27.9,26.7,30.21,NE,49,0.0,0.0,95,0.00,,,0.00,0,Wunderground v.1.15,2013-02-26 03:11:00,
2013-02-25 22:21:00,28.0,27.0,30.21,NE,49,0.0,0.0,96,0.00,,,0.00,0,Wunderground v.1.15,2013-02-26 03:21:00,
2013-02-25 22:31:00,27.8,26.6,30.21,NE,49,0.0,0.0,95,0.00,,,0.00,0,Wunderground v.1.15,2013-02-26 03:31:00,
2013-02-25 22:40:00,27.5,26.3,30.21,NE,49,0.0,0.0,95,0.00,,,0.00,0,Wunderground v.1.15,2013-02-26 03:40:00,
2013-02-25 22:51:00,27.5,26.5,30.21,NE,49,0.0,0.0,96,0.00,,,0.00,0,Wunderground v.1.15,2013-02-26 03:51:00,
2013-02-25 23:01:00,27.6,26.6,30.21,NE,49,0.0,0.0,96,0.00,,,0.00,0,Wunderground v.1.15,2013-02-26 04:01:00,
2013-02-25 23:11:00,27.8,26.8,30.21,NE,49,0.0,0.0,96,0.00,,,0.00,0,Wunderground v.1.15,2013-02-26 04:11:00,
2013-02-25 23:21:00,27.9,26.9,30.22,NE,49,0.0,0.0,96,0.00,,,0.00,0,Wunderground v.1.15,2013-02-26 04:21:00,
2013-02-25 23:31:00,28.0,27.0,30.22,NE,49,0.0,0.0,96,0.00,,,0.00,0,Wunderground v.1.15,2013-02-26 04:31:00,
2013-02-25 23:41:00,28.0,27.0,30.22,NE,49,0.0,0.0,96,0.00,,,0.00,0,Wunderground v.1.15,2013-02-26 04:41:00,
2013-02-25 23:50:00,28.4,27.4,30.23,NE,49,0.0,0.0,96,0.00,,,0.00,0,Wunderground v.1.15,2013-02-26 04:50:00,
2013-02-25 23:51:00,28.4,27.4,30.22,NE,49,0.0,0.0,96,0.00,,,0.00,0,Wunderground v.1.15,2013-02-26 04:51:00,